WetterOnline ( http://www.wetteronline.de )

Wetter aktuell Hohenpeißenberg

Aktuelles Wetter: Hohenpeißenberg (986m)

6-stündlich | Neueste Meldungen
Ortszeit Temperatur Wetter
Do, 24.01. 1:00 -8.1° C bedeckt
Mi, 23.01. 19:00 -7.5° C bewölkt
Mi, 23.01. 13:00 -7.3° C bewölkt
Mi, 23.01. 7:00 -9.9° C Nebel
Mi, 23.01. 1:00 -8.0° C Nebel
Di, 22.01. 19:00 -6.9° C Nebel
Di, 22.01. 13:00 -4.8° C bedeckt
Di, 22.01. 7:00 -7.6° C Nebel
Ortszeit Temperatur Wetter
Do, 24.01. 6:30 -8.0° C bewölkt
Do, 24.01. 6:20 -8.0° C leichter Schneefall
Do, 24.01. 6:10 -8.0° C bewölkt
Do, 24.01. 6:00 -7.9° C bedeckt
Do, 24.01. 5:50 -7.9° C bedeckt
Do, 24.01. 5:40 -8.0° C Nebel
Do, 24.01. 5:30 -8.0° C Nebel
Do, 24.01. 5:00 -8.0° C bedeckt
Do, 24.01. 4:30 -8.0° C bedeckt
Do, 24.01. 4:00 -8.1° C bedeckt
Do, 24.01. 3:30 -8.3° C bedeckt
Ortszeit Relative Feuchte Sichtweite
Do, 24.01. 1:00 92% 3.6 km
Mi, 23.01. 19:00 93% 4.6 km
Mi, 23.01. 13:00 89% 3.9 km
Mi, 23.01. 7:00 95% 100 m
Mi, 23.01. 1:00 95% 100 m
Di, 22.01. 19:00 97% 0.4 km
Di, 22.01. 13:00 88% 3.6 km
Di, 22.01. 7:00 98% 100 m
Ortszeit Relative Feuchte Sichtweite
Do, 24.01. 6:30 94% 1.6 km
Do, 24.01. 6:20 94% -
Do, 24.01. 6:10 93% -
Do, 24.01. 6:00 94% 1.3 km
Do, 24.01. 5:50 94% -
Do, 24.01. 5:40 94% -
Do, 24.01. 5:30 95% 0.5 km
Do, 24.01. 5:00 94% 2.0 km
Do, 24.01. 4:30 93% 2.5 km
Do, 24.01. 4:00 93% 2.4 km
Do, 24.01. 3:30 93% 2.9 km
Ortszeit Niederschlagsmenge Niederschlagsart
Do, 24.01. 1:00 0.0 l/m2 in 6 Std. -
Mi, 23.01. 19:00 0.0 l/m2 in 12 Std. -
Mi, 23.01. 13:00 0.0 l/m2 in 6 Std. -
Mi, 23.01. 7:00 0.0 l/m2 in 12 Std. -
Mi, 23.01. 1:00 0.0 l/m2 in 6 Std. -
Di, 22.01. 19:00 0.0 l/m2 in 12 Std. -
Di, 22.01. 13:00 0.0 l/m2 in 6 Std. -
Di, 22.01. 7:00 0.0 l/m2 in 12 Std. -
Ortszeit Niederschlagsmenge Niederschlagsart
Do, 24.01. 6:30 0.1 l/m2 in 1 Std. gefrierender Regen
Do, 24.01. 6:20 keine Meldung -
Do, 24.01. 6:10 keine Meldung -
Do, 24.01. 6:00 0.1 l/m2 in 1 Std. Schnee
Do, 24.01. 5:50 keine Meldung -
Do, 24.01. 5:40 keine Meldung -
Do, 24.01. 5:30 0.0 l/m2 in 1 Std. -
Do, 24.01. 5:00 0.0 l/m2 in 1 Std. -
Do, 24.01. 4:30 0.0 l/m2 in 1 Std. -
Do, 24.01. 4:00 0.0 l/m2 in 1 Std. -
Do, 24.01. 3:30 0.0 l/m2 in 1 Std. -
Ortszeit Stärke Spitze Richtung
km/h Bft. km/h Grad Sektor
Do, 24.01. 1:00 7 2 14 250° W
Mi, 23.01. 19:00 9 2 13 50° NO
Mi, 23.01. 13:00 2 1 9 40° NO
Mi, 23.01. 7:00 6 1 11 90° O
Mi, 23.01. 1:00 4 1 14 220° SW
Di, 22.01. 19:00 11 2 22 60° NO
Di, 22.01. 13:00 7 2 15 170° S
Di, 22.01. 7:00 2 1 17 100° O
Ortszeit Stärke Spitze Richtung
km/h Bft. km/h Grad Sektor
Do, 24.01. 6:30 7 2 14 220° SW
Do, 24.01. 6:20 7 2 - 220° SW
Do, 24.01. 6:10 7 2 - 230° SW
Do, 24.01. 6:00 7 2 19 220° SW
Do, 24.01. 5:50 7 2 - 220° SW
Do, 24.01. 5:40 7 2 - 230° SW
Do, 24.01. 5:30 7 2 18 270° W
Do, 24.01. 5:00 13 3 19 240° SW
Do, 24.01. 4:30 11 2 18 230° SW
Do, 24.01. 4:00 11 2 14 230° SW
Do, 24.01. 3:30 7 2 14 210° SW
Ortszeit Untergrenze Bedeckung Gattung
total tief tief mittel hoch
Do, 24.01. 1:00 90 m 8/8 8/8 - - -
Mi, 23.01. 19:00 90 m 8/8 5/8 - - -
Mi, 23.01. 13:00 <30 m 7/8 0/8 - - -
Mi, 23.01. 7:00 <30 m 8/8 0/8 - - -
Mi, 23.01. 1:00 <30 m 8/8 0/8 - - -
Di, 22.01. 19:00 <30 m 8/8 0/8 - - -
Di, 22.01. 13:00 30 m 8/8 - - - -
Di, 22.01. 7:00 <30 m 8/8 0/8 - - -
Ortszeit Bedeckungsgrad in Achtel und Wolkenuntergrenze
Do, 24.01. 6:30 7(30m)
Do, 24.01. 6:20 7(30m)
Do, 24.01. 6:10 7(<30m)
Do, 24.01. 6:00 7(<30m) 8(450m)
Do, 24.01. 5:50 7(<30m) 8(450m)
Do, 24.01. 5:40 7(<30m) 8(450m)
Do, 24.01. 5:30 8(<30m) 8(450m)
Do, 24.01. 5:00 8(30m)
Do, 24.01. 4:30 8(60m)
Do, 24.01. 4:00 8(60m)
Do, 24.01. 3:30 8(30m)
Ortszeit Stationsdruck (hPa) Tendenz (hPa in 3 Std.)
Do, 24.01. 1:00 886 + 2,0
Mi, 23.01. 19:00 883 + 1,2
Mi, 23.01. 13:00 881 - 1,0
Mi, 23.01. 7:00 883 - 1,4
Mi, 23.01. 1:00 886 - 1,5
Di, 22.01. 19:00 889 - 2,0
Di, 22.01. 13:00 894 - 2,1
Di, 22.01. 7:00 897 - 1,4
Ortszeit Stationsdruck (hPa) Tendenz (hPa in 3 Std.)
Do, 24.01. 6:30 889 + 1,7
Do, 24.01. 6:20 889 keine Meldung
Do, 24.01. 6:10 889 keine Meldung
Do, 24.01. 6:00 889 + 1,6
Do, 24.01. 5:50 889 keine Meldung
Do, 24.01. 5:40 889 keine Meldung
Do, 24.01. 5:30 888 + 1,3
Do, 24.01. 5:00 888 + 1,4
Do, 24.01. 4:30 888 + 1,3
Do, 24.01. 4:00 887 + 1,5
Do, 24.01. 3:30 887 + 1,6
Ortszeit Schneehöhe (cm)
Do, 24.01. 1:00 53
Mi, 23.01. 19:00 53
Mi, 23.01. 13:00 53
Mi, 23.01. 7:00 53
Mi, 23.01. 1:00 54
Di, 22.01. 19:00 54
Di, 22.01. 13:00 54
Di, 22.01. 7:00 54
Ortszeit Schneehöhe (cm)
Do, 24.01. 6:30 52
Do, 24.01. 6:20 52
Do, 24.01. 6:10 52
Do, 24.01. 6:00 52
Do, 24.01. 5:50 52
Do, 24.01. 5:40 52
Do, 24.01. 5:30 52
Do, 24.01. 5:00 52
Do, 24.01. 4:30 53
Do, 24.01. 4:00 53
Do, 24.01. 3:30 53
Link zu dieser Seite / Seite empfehlen

Das Wetter in ...